Погода в Эль-Бурайми

Оман     24°15′32″N   55°47′01″E
темп.,
°C
ветер,
м/с
пор.,
м/с
влажн.,
%
обл.,
%
осадки,
мм/ч
давл.,
гПа
погр.,
м
21 января, пт
пт2101:00+18зсз69681 0.0 1018882
04:00+17сз811560 0.0 1018935
07:00+16зсз914570 0.0 1019827
10:00+18сз1114450 0.0 10211514
13:00+18зсз1214400 0.0 10191382
16:00+17зсз1214450 0.0 10181350
19:00+14сз8115716 0.0 10201277
22:00+14сз7106055 0.0 10211204
22 января, сб
сб2201:00+14сз8105790 0.0 10201282
04:00+13сз596551 0.0 1019552
07:00+13сз366735 0.0 1020321
10:00+15сз44560 0.0 10211041
13:00+18сз44410 0.0 10181287
16:00+19сз45360 0.0 10161395
19:00+17сз56420 0.0 1017339
22:00+15сз47500 0.0 1018264
23 января, вс
вс2301:00+14сз35590 0.0 101896
04:00+13ссз34660 0.0 101765
07:00+12с22660 0.0 101816
10:00+16сз24560 0.0 1019704
13:00+19сз45420 0.0 10171027
16:00+20сз663726 0.0 10161286
19:00+18сз67500 0.0 1017482
22:00+16ссз46600 0.0 1018175
24 января, пн
пн2401:00+15с33650 0.0 101745
04:00+14ссв22681 0.0 101617
07:00+13ссв23700 0.0 101715
10:00+17с46520 0.0 1019581
13:00+21ссз45360 0.0 1016904
16:00+22ссз56290 0.0 10151103
19:00+19ссз57411 0.0 1016175
22:00+17ссз35574 0.0 101798
25 января, вт
вт2501:00+16с33643 0.0 101743
04:00+15с336893 0.0 101629
07:00+15ссв227637 0.0 101712
10:00+19ссз47645 0.0 1018608
13:00+23ссз67435 0.0 10161150
16:00+24сз67360 0.0 10151237
19:00+21ссз57490 0.0 1017236
22:00+18ссз46650 0.0 1018128